Skip Page Navigation
NASA JPL Caltech
NASA Logo - Jet Propulsion Laboratory + View the NASA Portal
+ Center for Near-Earth Object Studies
JPL Home Earth Solar System Stars & Galaxies Technology
JPL Solar System Dynamics
BODIES ORBITS EPHEMERIDES TOOLS PHYSICAL DATA DISCOVERY FAQ SITE MAP
IMPORTANT: The SSD Announcement email list is now available. Major changes are coming in the near future, including possible hostname and/or URL changes. To be notified of such changes, subscribe to this email list.

Please visit this page for more details.


JPL Small-Body Database Browser
Search: [ help ]  
535029 (2014 WG510)
Classification: TransNeptunian Object          SPK-ID: 2535029
Ephemeris | Orbit Diagram | Orbital Elements | Physical Parameters | Discovery Circumstances ]

[ show orbit diagram ]
Orbital Elements at Epoch 2458600.5 (2019-Apr-27.0) TDB
Reference: JPL 5 (heliocentric ecliptic J2000)
 Element Value Uncertainty (1-sigma)   Units 
e .2142617514830817 3.3316e-05  
a 39.02558756189932 0.0012743 au
q 30.66389681823041 0.0011321 au
i 17.48771666141474 1.9506e-05 deg
node 167.4555295953905 0.00036408 deg
peri 176.1771969643918 0.0056353 deg
M 67.01140045678312 0.0062626 deg
tp 2442024.917626916762
(1973-Dec-08.41762692)
0.73858 TDB
period 89047.67865817592
243.80
4.3615
0.01194
d
yr
n .004042778042333017 1.9801e-07 deg/d
Q 47.38727830556823 0.0015473 au
  Orbit Determination Parameters
   # obs. used (total)      99  
   data-arc span      2679 days (7.33 yr)  
   first obs. used      2010-09-06  
   last obs. used      2018-01-06  
   planetary ephem.      DE431  
   SB-pert. ephem.      SB431-N16  
   condition code      2  
   norm. resid. RMS      .59364  
   source      ORB  
   producer      Otto Matic  
   solution date      2019-May-30 11:27:49  

Additional Information
 Earth MOID = 29.6558 au 
 Jupiter MOID = 25.6821 au 
 T_jup = 5.236 
[ hide covariance matrix ]
Orbital Elements at Epoch 2457002.5 (2014-Dec-11.0) TDB
Reference: JPL 5 (heliocentric ecliptic J2000)
 Element Value Uncertainty (1-sigma)   Units 
e .2128667685734514 3.3365e-05  
q 30.93018410037847 0.0011286 au
tp 2442286.394253647259
(1974-Aug-26.89425365)
0.73607 TDB
node 167.5760966975462 0.00036268 deg
peri 178.0988134518442 0.0057338 deg
i 17.48977982421161 1.9669e-05 deg
  Orbit Determination Parameters
   # obs. used (total)      99  
   data-arc span      2679 days (7.33 yr)  
   first obs. used      2010-09-06  
   last obs. used      2018-01-06  
   planetary ephem.      DE431  
   SB-pert. ephem.      SB431-N16  
   condition code      2  
   norm. resid. RMS      .59364  
   source      ORB  
   producer      Otto Matic  
   solution date      2019-May-30 11:27:49  

Additional Information
 Jupiter MOID = 25.6821 au 
 T_jup = 5.236 
Orbit Covariance (6×6)
  e q tp node peri i
e 1.113218698800869E-9 -2.495779513462498E-8 1.138387892376158E-5 1.212093897437351E-9 -2.287179676100484E-8 7.956763309306953E-11
q -2.495779513462498E-8 1.273718688157199E-6 .0002934542729877871 -2.494724400334531E-8 5.308808034757469E-6 4.782071250625936E-10
tp 1.138387892376158E-5 .0002934542729877871 .5417973513936232 1.401716630754805E-5 .003468318667140751 2.524234734204711E-6
node 1.212093897437351E-9 -2.494724400334531E-8 1.401716630754805E-5 1.315349848652632E-7 -1.345386736205561E-7 6.683211027279807E-9
peri -2.287179676100484E-8 5.308808034757469E-6 .003468318667140751 -1.345386736205561E-7 3.287626868431984E-5 7.147315313698237E-9
i 7.956763309306953E-11 4.782071250625936E-10 2.524234734204711E-6 6.683211027279807E-9 7.147315313698237E-9 3.868551363589495E-10

Ephemeris | Orbit Diagram | Orbital Elements | Physical Parameters | Discovery Circumstances ]

Physical Parameter Table
Parameter Symbol Value Units Sigma Reference Notes
absolute magnitude H 6.7   n/a E2018Y78  

535029 (2014 WG510)          Discovered 2010-Sep-06 by Pan-STARRS 1 at Haleakala
Reference: Last Updated: 2019-05-29
Ephemeris | Orbit Diagram | Orbital Elements | Physical Parameters | Discovery Circumstances ]
ABOUT SSD CREDITS/AWARDS PRIVACY/COPYRIGHT GLOSSARY LINKS
FirstGov 2019-Dec-14 08:12 UT
(server date/time)  
NASA Home Page
Site Manager:   Ryan S. Park
Webmaster  Alan B. Chamberlin